Météo par heure à Alicante

Ce jour, 13 Mai, Jeudi

Heure Température Précipitation Vent Pression Humidité
00:00 +20°C° 0 mm 3 m/s 761 mmHg 47%
01:00 +19°C° 0 mm 3 m/s 761 mmHg 49%
02:00 +19°C° 0 mm 3 m/s 761 mmHg 50%
03:00 +18°C° 0 mm 2 m/s 761 mmHg 52%
04:00 +18°C° 0 mm 3 m/s 761 mmHg 52%
05:00 +18°C° 0 mm 3 m/s 761 mmHg 53%
06:00 +18°C° 0 mm 3 m/s 762 mmHg 54%
07:00 +20°C° 0 mm 3 m/s 761 mmHg 49%
08:00 +21°C° 0 mm 3 m/s 761 mmHg 44%
09:00 +24°C° 0 mm 3 m/s 761 mmHg 38%
10:00 +25°C° 0 mm 3 m/s 761 mmHg 36%
11:00 +26°C° 0 mm 4 m/s 761 mmHg 33%
12:00 +27°C° 0 mm 4 m/s 760 mmHg 30%
13:00 +28°C° 0 mm 5 m/s 759 mmHg 31%
14:00 +28°C° 0 mm 5 m/s 759 mmHg 31%
15:00 +28°C° 0 mm 6 m/s 758 mmHg 32%
16:00 +27°C° 0 mm 5 m/s 758 mmHg 35%
17:00 +26°C° 0 mm 5 m/s 758 mmHg 39%
18:00 +25°C° 0 mm 5 m/s 758 mmHg 42%
19:00 +23°C° 0 mm 4 m/s 758 mmHg 47%
20:00 +22°C° 0 mm 3 m/s 759 mmHg 51%
21:00 +21°C° 0 mm 2 m/s 759 mmHg 56%
22:00 +21°C° 0 mm 2 m/s 759 mmHg 55%
23:00 +21°C° 0 mm 3 m/s 758 mmHg 55%

Demain, 14 Mai, Vendredi

Heure Température Précipitation Vent Pression Humidité
00:00 +21°C° 0 mm 3 m/s 758 mmHg 54%
01:00 +21°C° 0 mm 4 m/s 758 mmHg 57%
02:00 +20°C° 0 mm 4 m/s 758 mmHg 60%
03:00 +20°C° 0 mm 5 m/s 758 mmHg 63%
04:00 +19°C° 0 mm 6 m/s 758 mmHg 64%
05:00 +19°C° 0 mm 6 m/s 758 mmHg 65%
06:00 +18°C° 0 mm 7 m/s 759 mmHg 67%
07:00 +20°C° 0 mm 7 m/s 759 mmHg 59%
08:00 +22°C° 0 mm 7 m/s 759 mmHg 50%
09:00 +23°C° 0 mm 8 m/s 760 mmHg 42%
10:00 +24°C° 0 mm 6 m/s 760 mmHg 38%
11:00 +26°C° 0 mm 5 m/s 760 mmHg 34%
12:00 +27°C° 0 mm 4 m/s 760 mmHg 30%
13:00 +27°C° 0 mm 5 m/s 760 mmHg 32%
14:00 +27°C° 0 mm 5 m/s 760 mmHg 34%
15:00 +27°C° 0 mm 5 m/s 760 mmHg 37%
16:00 +25°C° 0 mm 5 m/s 760 mmHg 44%
17:00 +22°C° 0 mm 4 m/s 761 mmHg 52%
18:00 +21°C° 0 mm 3 m/s 761 mmHg 59%
19:00 +20°C° 0 mm 2 m/s 761 mmHg 63%
20:00 +19°C° 0 mm 2 m/s 762 mmHg 67%
21:00 +20°C° 0 mm 1 m/s 762 mmHg 72%
22:00 +20°C° 0 mm 1 m/s 762 mmHg 74%
23:00 +18°C° 0 mm 2 m/s 761 mmHg 76%

Après-demain, 15 Mai, Samedi

Heure Température Précipitation Vent Pression Humidité
00:00 +18°C° 0 mm 2 m/s 761 mmHg 77%
01:00 +18°C° 0 mm 2 m/s 761 mmHg 78%
02:00 +18°C° 0 mm 2 m/s 761 mmHg 78%
03:00 +18°C° 0 mm 2 m/s 760 mmHg 79%
04:00 +19°C° 0 mm 2 m/s 760 mmHg 76%
05:00 +19°C° 0 mm 2 m/s 760 mmHg 73%
06:00 +20°C° 0 mm 2 m/s 760 mmHg 70%
07:00 +22°C° 0 mm 3 m/s 760 mmHg 61%
08:00 +25°C° 0 mm 3 m/s 760 mmHg 52%
09:00 +27°C° 0 mm 3 m/s 760 mmHg 42%
10:00 +28°C° 0 mm 4 m/s 760 mmHg 38%
11:00 +29°C° 0 mm 5 m/s 759 mmHg 34%
12:00 +32°C° 0 mm 5 m/s 759 mmHg 30%
13:00 +32°C° 0 mm 5 m/s 759 mmHg 29%
14:00 +33°C° 0 mm 5 m/s 758 mmHg 28%
15:00 +33°C° 0 mm 5 m/s 758 mmHg 27%
16:00 +32°C° 0 mm 4 m/s 758 mmHg 31%
17:00 +30°C° 0 mm 4 m/s 758 mmHg 35%
18:00 +29°C° 0 mm 4 m/s 758 mmHg 40%
19:00 +28°C° 0 mm 3 m/s 758 mmHg 42%
20:00 +27°C° 0 mm 2 m/s 758 mmHg 45%
21:00 +26°C° 0 mm 2 m/s 758 mmHg 47%
22:00 +26°C° 0 mm 2 m/s 758 mmHg 47%
23:00 +26°C° 0 mm 2 m/s 758 mmHg 46%

16 Mai, Dimanche

Heure Température Précipitation Vent Pression Humidité
00:00 +26°C° 0 mm 2 m/s 758 mmHg 46%
01:00 +25°C° 0 mm 2 m/s 758 mmHg 49%
02:00 +25°C° 0 mm 3 m/s 758 mmHg 51%
03:00 +24°C° 0 mm 3 m/s 757 mmHg 54%
04:00 +25°C° 0 mm 3 m/s 757 mmHg 55%
05:00 +25°C° 0 mm 3 m/s 757 mmHg 56%
06:00 +25°C° 0 mm 3 m/s 757 mmHg 57%
07:00 +27°C° 0 mm 3 m/s 758 mmHg 49%
08:00 +29°C° 0 mm 3 m/s 758 mmHg 41%
09:00 +31°C° 0 mm 3 m/s 758 mmHg 33%
10:00 +34°C° 0 mm 4 m/s 757 mmHg 30%
11:00 +35°C° 0 mm 4 m/s 757 mmHg 27%
12:00 +36°C° 0 mm 5 m/s 757 mmHg 24%
13:00 +36°C° 0 mm 5 m/s 756 mmHg 24%
14:00 +36°C° 0 mm 5 m/s 756 mmHg 25%
15:00 +36°C° 0 mm 5 m/s 756 mmHg 25%
16:00 +35°C° 0 mm 4 m/s 756 mmHg 26%
17:00 +34°C° 0 mm 3 m/s 756 mmHg 27%
18:00 +32°C° 0 mm 2 m/s 756 mmHg 28%
19:00 +31°C° 0 mm 2 m/s 756 mmHg 30%
20:00 +30°C° 0 mm 2 m/s 756 mmHg 32%
21:00 +29°C° 0 mm 2 m/s 757 mmHg 34%
22:00 +28°C° 0 mm 2 m/s 757 mmHg 37%
23:00 +27°C° 0 mm 2 m/s 757 mmHg 41%

17 Mai, Lundi

Heure Température Précipitation Vent Pression Humidité
00:00 +27°C° 0 mm 3 m/s 757 mmHg 44%
01:00 +26°C° 0 mm 3 m/s 757 mmHg 50%
02:00 +25°C° 0 mm 3 m/s 757 mmHg 56%
03:00 +23°C° 0 mm 4 m/s 757 mmHg 63%
04:00 +22°C° 0 mm 4 m/s 758 mmHg 66%
05:00 +22°C° 0 mm 4 m/s 758 mmHg 69%
06:00 +22°C° 0 mm 4 m/s 759 mmHg 72%
07:00 +23°C° 0 mm 4 m/s 759 mmHg 66%
08:00 +25°C° 0 mm 5 m/s 760 mmHg 61%
09:00 +26°C° 0 mm 5 m/s 761 mmHg 56%
10:00 +26°C° 0 mm 6 m/s 761 mmHg 54%
11:00 +26°C° 0 mm 6 m/s 761 mmHg 52%
12:00 +26°C° 0 mm 6 m/s 762 mmHg 51%
13:00 +26°C° 0 mm 6 m/s 762 mmHg 52%
14:00 +24°C° 0 mm 6 m/s 762 mmHg 53%
15:00 +23°C° 0 mm 6 m/s 762 mmHg 55%
16:00 +22°C° 0 mm 5 m/s 762 mmHg 58%
17:00 +21°C° 0 mm 4 m/s 762 mmHg 62%
18:00 +20°C° 0 mm 3 m/s 763 mmHg 65%
19:00 +20°C° 0 mm 2 m/s 763 mmHg 70%
20:00 +19°C° 0 mm 2 m/s 764 mmHg 74%
21:00 +19°C° 0 mm 1 m/s 765 mmHg 79%
22:00 +19°C° 0 mm 1 m/s 765 mmHg 80%
23:00 +19°C° 0 mm 1 m/s 765 mmHg 82%

18 Mai, Mardi

Heure Température Précipitation Vent Pression Humidité
00:00 +18°C° 0 mm 1 m/s 765 mmHg 84%
01:00 +16°C° 0 mm 0 m/s 765 mmHg 85%
02:00 +16°C° 0 mm 0 m/s 765 mmHg 86%
03:00 +16°C° 0 mm 0 m/s 765 mmHg 87%
04:00 +16°C° 0 mm 0 m/s 765 mmHg 85%
05:00 +18°C° 0 mm 1 m/s 765 mmHg 83%
06:00 +19°C° 0 mm 1 m/s 766 mmHg 82%
07:00 +20°C° 0 mm 1 m/s 766 mmHg 73%
08:00 +20°C° 0 mm 2 m/s 766 mmHg 64%
09:00 +23°C° 0 mm 2 m/s 766 mmHg 55%
10:00 +22°C° 0 mm 3 m/s 766 mmHg 52%
11:00 +24°C° 0 mm 3 m/s 766 mmHg 48%
12:00 +25°C° 0 mm 4 m/s 766 mmHg 45%
13:00 +25°C° 0 mm 4 m/s 766 mmHg 45%
14:00 +25°C° 0 mm 4 m/s 765 mmHg 46%
15:00 +25°C° 0 mm 4 m/s 765 mmHg 47%
16:00 +24°C° 0 mm 3 m/s 765 mmHg 49%
17:00 +24°C° 0 mm 3 m/s 765 mmHg 52%
18:00 +23°C° 0 mm 2 m/s 765 mmHg 54%
19:00 +21°C° 0 mm 2 m/s 765 mmHg 57%
20:00 +20°C° 0 mm 2 m/s 766 mmHg 60%
21:00 +21°C° 0 mm 1 m/s 766 mmHg 63%
22:00 +20°C° 0 mm 1 m/s 766 mmHg 65%
23:00 +20°C° 0 mm 1 m/s 766 mmHg 66%
Voir plus

Nous avons besoin de votre consentement

Meteoprog et ses fournisseurs de services peuvent stocker et accéder à des données personnelles telles que des cookies, des identifiants d'appareils ou d'autres technologies similaires sur votre appareil et traiter ces données pour personnaliser le contenu et les publicités, ainsi que pour fournir des fonctionnalités de médias sociaux et analyser le trafic.

  • Stocker et/ou accéder à des informations sur votre appareil

    Des cookies, des identifiants d'appareils ou d'autres informations peuvent être stockés ou accessibles sur votre appareil aux fins indiquées ci-dessus.

  • Annonces et contenus personnalisés, mesure des annonces et des contenus, connaissance de l'audience et développement de produits

    Les annonces et le contenu peuvent être personnalisés en fonction d'un profil. D'autres données peuvent être ajoutées pour mieux personnaliser les annonces et le contenu. Les performances des publicités et du contenu peuvent être mesurées. Il est possible d'obtenir des informations sur le public qui a vu les publicités et le contenu. Ces données peuvent être utilisées pour développer ou améliorer l'expérience de l'utilisateur, les systèmes et les logiciels.

En cliquant sur "J'accepte", vous autorisez l'utilisation de cookies, des identifiants d'appareils, des balises web ou d'autres technologies similaires. Vos paramètres peuvent être modifiés dans le navigateur de votre appareil.

Dans certains cas, des intérêts légitimes peuvent être invoqués plutôt qu'un consentement. Vous pouvez en savoir plus à ce sujet dans notre Politique de confidentialité et de cookies.